Torna al catalogo

SHIYAN 27C

AttivoScienzaSSO
NORAD 63601·PAYLOAD·🇨🇳 China

Lanciato Apr 18, 2025 da Taiyuan Satellite Launch Center

Loading…

Prossimi Passaggi (prossime 24 ore)

TLE

AggiornatoSource: Space-Track

Epoca: Sep 14, 2026, 13:52 UTC

1 63601U 25078C   26257.57791907 -.00000005  00000-0  54844-4 0  9990
2 63601  99.6948 263.5476 0000861  85.3264 274.7973 13.57246665 69660

Traccia SHIYAN 27C in tempo reale con AllMySat

Download on the App Store